Location: Newark
(41.0420°N, 28.9376°E)
Time: 07:17:06
(UTC+00:00)

N. Korean satellite - Visible Passes

Search period start: 23 September 2020 00:00
Search period end: 03 October 2020 00:00
Orbit: 455 x 503 km, 97.2° (Epoch: 22 September)

Date Brightness Start Highest point End Pass type
(mag) Time Alt. Az. Time Alt. Az. Time Alt. Az.
23 Sep 8.8 03:06:21 10° NNE 03:09:37 30° E 03:12:50 10° SSE visible
24 Sep 9.9 02:41:19 10° NE 02:43:27 15° E 02:45:34 10° SE visible
26 Sep 7.7 03:21:25 10° NNE 03:24:58 48° E 03:28:26 10° S visible
27 Sep 9.4 02:55:56 10° NE 02:58:50 22° E 03:01:42 10° SSE visible
28 Sep 10.2 02:31:42 10° ENE 02:32:37 11° E 02:33:32 10° ESE visible
30 Sep 8.5 03:10:51 10° NNE 03:14:11 34° E 03:17:26 10° SSE visible
01 Oct 9.8 02:45:38 10° NE 02:48:00 17° E 02:50:20 10° SE visible
